Location: Emblem
(62.4273°N, 6.4710°E)
Time: 05:48:31
(UTC+02:00)

Transit 2A - Pass Details

Date: 08 March 2024
Orbit: 596 x 956 km, 66.7° (Epoch: 24 April)

Event Time Altitude Azimuth Distance (km) Brightness Sun altitude
Rises 22:24:42 0° 288° (WNW) 2,895 9.9 -26.5°
Reaches altitude 10° 22:26:57 10° 294° (WNW) 2,019 9.0 -26.7°
Maximum altitude 22:31:24 54° 12° (NNE) 810 6.2 -27.0°
Enters shadow 22:31:32 54° 19° (NNE) 813 6.2 -27.0°
